Weather Roundup
Issued by NWS

Home | Current Version | Previous Version | Text Only | Print | Product List | Glossary On
Versions: 1 2 3 4 5 6 7 8 9 10 11 12 13 14 15 16 17 18 19 20 21 22 23 24 25 26 27 28 29 30 31 32 33 34 35 36 37 38 39 40 41 42 43 44 45 46 47 48 49 50
000
NZUS93 KARX 220610
HRRWXR

CURRENT HOURLY OBSERVATIONS ACROSS
MUCH OF THE UPPER MISSISSIPPI VALLEY
NATIONAL WEATHER SERVICE LA CROSSE WI
100 AM CDT WED OCT 22 2014


...SOUTHEAST MINNESOTA...


CITY           SKY/WX    TMP DP  RH WIND       PRES   REMARKS
ROCHESTER      CLEAR     40  36  86 SE10      30.22S WCI  33
ROCHESTER/MAYO FAIR      42  35  75 E10       30.22R
WINONA         CLEAR     41  36  81 SE7       30.25S
AUSTIN         CLEAR     43  37  81 SE10      30.20S
ALBERT LEA     CLEAR     45  37  76 SE14      30.17F
DODGE CENTER   PTCLDY    41  37  87 SE14      30.20R
PRESTON        CLEAR     39  35  84 SE8       30.23F WCI  34
OWATONNA       CLEAR     45  37  76 SE10      30.18R
FARIBAULT      CLEAR     45  37  76 SE16      30.18R
$$

...ELSEWHERE IN MINNESOTA...


CITY           SKY/WX    TMP DP  RH WIND       PRES   REMARKS
MINNEAPOLIS    CLEAR     44  37  76 SE12      30.18S
INTNL FALLS    CLEAR     39  34  82 SE9       30.08S WCI  33
DULUTH         CLEAR     39  35  86 SE9       30.18F WCI  33
RED WING       CLEAR     46  37  71 SE10G17   30.21S
REDWOOD FALLS  CLEAR     49  39  68 SE16      30.08S
MANKATO        CLEAR     46  34  61 SE16      30.14S
WORTHINGTON    CLEAR     48  39  71 SE13      30.08F
FAIRMONT       CLEAR     46  36  66 SE15      30.13S
$$

...SOUTHWEST WISCONSIN...


CITY           SKY/WX    TMP DP  RH WIND       PRES   REMARKS
LA CROSSE      CLEAR     39  34  82 E7        30.27R WCI  34
PRAIRIE DU CHI CLEAR     39  35  84 CALM      30.27S
BOSCOBEL       CLEAR     32  30  92 E3        30.29S FOG
LONE ROCK      CLEAR     35  29  78 CALM      30.29S
PLATTEVILLE    CLEAR     37  34  90 E9        30.28S WCI  30
FORT MC COY    CLEAR     28  28  98 CALM      30.29R
CAMP DOUGLAS   CLEAR     28  28 100 SE3       30.29R
VIROQUA        FAIR      37  37 100 S5        30.26S WCI  33
WIS DELLS      CLEAR     31  30  96 CALM      30.29S
$$

...ELSEWHERE IN WISCONSIN...


CITY           SKY/WX    TMP DP  RH WIND       PRES   REMARKS
MILWAUKEE      PTCLDY    40  35  83 W5        30.28R
MADISON        CLEAR     30  29  96 CALM      30.30R FOG
GREEN BAY      CLEAR     31  30  96 CALM      30.30F
EAU CLAIRE     CLEAR     41  34  76 SE8       30.25R
BLACK RVR FLS  FAIR      27  27 100 CALM      30.27S
MEDFORD        CLEAR     32  30  92 CALM      30.27R
WAUSAU         PTCLDY    34  30  85 CALM      30.28S
WIS RAPIDS     FOG       30  29  96 CALM      30.30R VSB 1
MARSHFIELD     CLEAR     35  33  92 CALM      30.27S
RICE LAKE      CLEAR     39  35  83 SE7       30.25S WCI  34
$$

...NORTHEAST IOWA...


CITY           SKY/WX    TMP DP  RH WIND       PRES   REMARKS
DECORAH        CLEAR     39  37  93 SE8       30.24R WCI  34
MASON CITY     CLEAR     41  37  86 SE10      30.20S
CHARLES CITY   CLEAR     43  37  81 SE9       30.22S
OELWEIN        CLEAR     41  37  87 SE10      30.24S
$$

...ELSEWHERE IN IOWA...


CITY           SKY/WX    TMP DP  RH WIND       PRES   REMARKS
DES MOINES     CLEAR     50  39  66 SE9       30.18R
IOWA CITY      CLEAR     43  38  82 E6        30.25S
FORT DODGE     CLEAR     48  37  66 SE10G17   30.16S
$$

...NORTHERN ILLINOIS...


CITY           SKY/WX    TMP DP  RH WIND       PRES   REMARKS
CHICAGO-OHARE  MOCLDY    46  37  71 NE5       30.25S
CHICAGO-MIDWAY CLOUDY    51  41  68 NE5       30.25S
MOLINE         CLEAR     37  33  85 E7        30.26S WCI  32
ROCKFORD       CLEAR     37  33  85 NE3       30.29S
PEORIA         CLEAR     43  37  79 E7        30.26R
$$

NOTE: "FAIR" INDICATES FEW OR NO CLOUDS BELOW 12,000 FEET WITH NO
SIGNIFICANT WEATHER AND/OR OBSTRUCTIONS TO VISIBILITY. WIND
SPEEDS ARE IN MILES-PER-HOUR.



USA.gov is the U.S. government's official web portal to all federal, state and local government web resources and services.